�������l�o���
Date,Time,MP-1(��Sv/h),MP-2(��Sv/h),MP-3(��Sv/h),MP-4(��Sv/h),MP-5(��Sv/h),MP-6(��Sv/h),MP-7(��Sv/h),MP-8(��Sv/h),����,����(m/s),���J
2020/11/05,00:00,0.657,0.947,0.602,1.175,0.843,0.382,0.672,0.631,��,6.5,��
2020/11/05,00:10,0.657,0.948,0.602,1.175,0.842,0.382,0.671,0.631,���쐼,7.7,��
2020/11/05,00:20,0.657,0.947,0.602,1.177,0.844,0.382,0.671,0.631,���쐼,6.8,��
2020/11/05,00:30,0.655,0.947,0.603,1.175,0.841,0.384,0.671,0.631,���쐼,8.4,��
2020/11/05,00:40,0.657,0.948,0.602,1.176,0.841,0.383,0.671,0.631,���쐼,7.1,��
2020/11/05,00:50,0.657,0.946,0.601,1.174,0.844,0.383,0.672,0.630,���쐼,8.4,��
2020/11/05,01:00,0.659,0.948,0.602,1.174,0.841,0.384,0.673,0.632,��,8.4,��
2020/11/05,01:10,0.658,0.945,0.602,1.173,0.842,0.382,0.671,0.633,��,9.9,��
2020/11/05,01:20,0.658,0.947,0.601,1.176,0.843,0.384,0.670,0.631,���쐼,7.1,��
2020/11/05,01:30,0.656,0.949,0.603,1.174,0.840,0.382,0.671,0.632,���쐼,7.2,��
2020/11/05,01:40,0.656,0.948,0.602,1.175,0.842,0.383,0.670,0.631,��,8.9,��
2020/11/05,01:50,0.658,0.949,0.601,1.176,0.842,0.383,0.670,0.631,��,7.4,��
2020/11/05,02:00,0.656,0.948,0.601,1.177,0.842,0.383,0.670,0.630,��,6.0,��
2020/11/05,02:10,0.657,0.946,0.601,1.175,0.842,0.383,0.672,0.631,��,6.6,��
2020/11/05,02:20,0.656,0.947,0.603,1.176,0.843,0.383,0.671,0.632,���k��,6.9,��
2020/11/05,02:30,0.656,0.947,0.603,1.178,0.843,0.383,0.672,0.632,���k��,6.8,��
2020/11/05,02:40,0.657,0.948,0.602,1.175,0.841,0.384,0.671,0.631,���k��,6.3,��
2020/11/05,02:50,0.657,0.947,0.602,1.175,0.843,0.383,0.671,0.632,�k��,5.7,��
2020/11/05,03:00,0.658,0.949,0.602,1.176,0.843,0.383,0.672,0.631,���k��,5.2,��
2020/11/05,03:10,0.655,0.946,0.602,1.176,0.842,0.384,0.673,0.632,�k��,4.5,��
2020/11/05,03:20,0.656,0.946,0.603,1.177,0.842,0.384,0.671,0.631,��,5.6,��
2020/11/05,03:30,0.656,0.949,0.600,1.175,0.841,0.384,0.670,0.631,��,4.5,��
2020/11/05,03:40,0.656,0.948,0.602,1.176,0.843,0.382,0.671,0.630,���쐼,4.6,��
2020/11/05,03:50,0.659,0.947,0.602,1.174,0.841,0.383,0.669,0.632,���k��,5.5,��
2020/11/05,04:00,0.656,0.948,0.603,1.178,0.844,0.381,0.672,0.632,���k��,6.4,��
2020/11/05,04:10,0.656,0.946,0.602,1.176,0.841,0.382,0.673,0.632,�k��,5.1,��
2020/11/05,04:20,0.657,0.946,0.603,1.176,0.842,0.382,0.673,0.630,���k��,5.4,��
2020/11/05,04:30,0.658,0.949,0.601,1.177,0.843,0.382,0.671,0.632,���k��,3.0,��
2020/11/05,04:40,0.657,0.949,0.603,1.175,0.840,0.383,0.671,0.632,���쐼,3.4,��
2020/11/05,04:50,0.658,0.946,0.601,1.176,0.842,0.384,0.671,0.630,��,3.6,��
2020/11/05,05:00,0.658,0.947,0.602,1.174,0.841,0.383,0.672,0.632,���쐼,2.5,��
2020/11/05,05:10,0.658,0.947,0.600,1.176,0.843,0.382,0.671,0.631,���쐼,3.6,��
2020/11/05,05:20,0.656,0.946,0.601,1.178,0.840,0.384,0.672,0.632,���쐼,4.2,��
2020/11/05,05:30,0.656,0.947,0.602,1.177,0.843,0.383,0.671,0.630,���쐼,5.3,��
2020/11/05,05:40,0.658,0.945,0.602,1.175,0.842,0.383,0.671,0.631,���쐼,5.5,��
2020/11/05,05:50,0.657,0.949,0.603,1.177,0.841,0.383,0.669,0.630,���쐼,6.4,��
2020/11/05,06:00,0.656,0.947,0.602,1.177,0.841,0.382,0.671,0.630,��,5.2,��
2020/11/05,06:10,0.656,0.944,0.601,1.176,0.842,0.382,0.671,0.630,���쐼,3.6,��
2020/11/05,06:20,0.658,0.947,0.602,1.174,0.840,0.381,0.670,0.631,���쐼,4.2,��
2020/11/05,06:30,0.656,0.943,0.600,1.177,0.842,0.383,0.671,0.630,�쐼,4.2,��
2020/11/05,06:40,0.656,0.947,0.601,1.177,0.842,0.382,0.671,0.632,���쐼,4.1,��
2020/11/05,06:50,0.656,0.947,0.602,1.177,0.842,0.382,0.670,0.631,�쐼,4.9,��
2020/11/05,07:00,0.656,0.946,0.602,1.176,0.841,0.382,0.673,0.631,�쐼,5.4,��
2020/11/05,07:10,0.656,0.949,0.600,1.176,0.841,0.381,0.671,0.629,���쐼,4.0,��
2020/11/05,07:20,0.657,0.946,0.602,1.177,0.842,0.382,0.671,0.630,���쐼,3.0,��
2020/11/05,07:30,0.657,0.949,0.602,1.175,0.842,0.381,0.672,0.633,���쐼,3.0,��
2020/11/05,07:40,0.655,0.948,0.602,1.174,0.843,0.382,0.672,0.630,���쐼,3.3,��
2020/11/05,07:50,0.657,0.947,0.602,1.179,0.842,0.382,0.672,0.631,���쐼,3.3,��
2020/11/05,08:00,0.659,0.947,0.602,1.176,0.841,0.382,0.673,0.630,��,3.1,��
2020/11/05,08:10,0.658,0.946,0.601,1.176,0.842,0.381,0.670,0.631,�쐼,2.0,��
2020/11/05,08:20,0.656,0.948,0.603,1.175,0.842,0.383,0.671,0.630,���쐼,1.7,��
2020/11/05,08:30,0.657,0.944,0.602,1.176,0.841,0.383,0.670,0.633,���쐼,4.9,��
2020/11/05,08:40,0.658,0.943,0.600,1.175,0.842,0.384,0.671,0.631,��,5.1,��
2020/11/05,08:50,0.657,0.943,0.600,1.178,0.840,0.382,0.669,0.631,��,4.2,��
2020/11/05,09:00,0.659,0.941,0.601,1.177,0.841,0.383,0.669,0.631,��,4.0,��
2020/11/05,09:10,0.657,0.941,0.602,1.177,0.841,0.383,0.671,0.632,���k��,3.2,��
2020/11/05,09:20,0.659,0.943,0.599,1.178,0.844,0.382,0.668,0.632,���쐼,4.6,��
2020/11/05,09:30,0.657,0.941,0.604,1.179,0.842,0.382,0.669,0.632,��,7.5,��
2020/11/05,09:40,0.656,0.943,0.603,1.176,0.841,0.384,0.669,0.631,���k��,5.2,��
2020/11/05,09:50,0.657,0.943,0.602,1.178,0.842,0.383,0.669,0.633,��,5.9,��
2020/11/05,10:00,0.658,0.943,0.603,1.176,0.840,0.382,0.670,0.633,���쐼,6.8,��
2020/11/05,10:10,0.657,0.943,0.603,1.178,0.843,-,0.670,0.632,��,6.5,��
2020/11/05,10:20,0.657,0.944,0.603,1.177,0.843,-,0.669,0.633,��,7.4,��
2020/11/05,10:30,0.658,0.945,0.601,1.176,0.844,-,0.668,0.633,���쐼,7.7,��
2020/11/05,10:40,0.658,0.946,0.603,1.178,0.844,-,0.669,0.633,��,6.7,��
2020/11/05,10:50,0.658,0.943,0.602,1.177,0.842,-,0.668,0.632,���쐼,7.3,��
2020/11/05,11:00,0.658,0.945,0.602,1.176,0.843,-,0.670,0.632,���쐼,7.5,��
2020/11/05,11:10,0.658,0.946,0.602,1.179,0.843,-,0.669,0.633,��,8.9,��
2020/11/05,11:20,0.657,0.946,0.602,1.179,0.833,-,0.670,0.632,���쐼,6.8,��
2020/11/05,11:30,0.659,0.948,0.601,1.179,0.836,-,0.670,0.633,��,6.6,��
2020/11/05,11:40,0.658,0.949,0.601,1.179,0.841,-,0.669,0.633,�쐼,7.6,��
2020/11/05,11:50,0.658,0.949,0.602,1.178,0.838,-,0.672,0.632,���쐼,8.4,��
2020/11/05,12:00,0.658,0.949,0.601,1.181,0.841,-,0.671,0.633,���쐼,7.5,��
2020/11/05,12:10,0.659,0.948,0.602,1.180,0.841,-,0.672,0.630,���쐼,9.9,��
2020/11/05,12:20,0.659,0.951,0.603,1.178,0.841,-,0.671,0.632,���쐼,9.1,��
2020/11/05,12:30,0.660,0.948,0.600,1.180,0.838,-,0.672,0.630,���쐼,10.2,��
2020/11/05,12:40,0.660,0.950,0.602,1.180,0.837,-,0.671,0.630,��,10.9,��
2020/11/05,12:50,0.660,0.950,0.601,1.178,0.843,-,0.672,0.630,���쐼,8.2,��
2020/11/05,13:00,0.660,0.950,0.602,1.183,0.846,-,0.669,0.630,���쐼,8.0,��
2020/11/05,13:10,0.660,0.949,0.601,1.182,0.845,-,0.670,0.631,��,7.4,��
2020/11/05,13:20,0.660,0.947,0.603,1.181,0.846,-,0.671,0.631,���쐼,9.4,��
2020/11/05,13:30,0.659,0.946,0.603,1.183,0.846,-,0.672,0.630,���쐼,7.1,��
2020/11/05,13:40,0.662,0.950,0.601,1.181,0.845,-,0.670,0.630,���쐼,7.7,��
2020/11/05,13:50,0.662,0.947,0.601,1.180,0.845,-,0.669,0.629,��,7.4,��
2020/11/05,14:00,0.659,0.947,0.603,1.183,0.846,-,0.669,0.631,��,7.8,��
2020/11/05,14:10,0.659,0.950,0.602,1.180,0.845,0.383,0.669,0.630,��,5.5,��
2020/11/05,14:20,0.659,0.949,0.601,1.181,0.847,0.383,0.671,0.630,���쐼,6.2,��
2020/11/05,14:30,0.661,0.950,0.603,1.179,0.846,0.385,0.670,0.630,��,7.6,��
2020/11/05,14:40,0.660,0.950,0.603,1.182,0.844,0.384,0.670,0.631,��,7.6,��
2020/11/05,14:50,0.659,0.950,0.603,1.182,0.845,0.383,0.672,0.629,��,8.3,��
2020/11/05,15:00,0.659,0.948,0.604,1.181,0.844,0.383,0.670,0.631,��,8.8,��
2020/11/05,15:10,0.658,0.948,0.603,1.182,0.845,0.383,0.670,0.630,��,10.9,��
2020/11/05,15:20,0.660,0.952,0.603,1.182,0.847,0.381,0.669,0.632,���k��,9.5,��
2020/11/05,15:30,0.658,0.951,0.601,1.182,0.846,0.382,0.670,0.630,���k��,8.1,��
2020/11/05,15:40,0.659,0.950,0.602,1.180,0.849,0.383,0.671,0.630,���k��,7.6,��
2020/11/05,15:50,0.659,0.953,0.599,1.183,0.846,0.385,0.671,0.630,���k��,8.3,��
2020/11/05,16:00,0.659,0.950,0.599,1.184,0.845,0.386,0.671,0.632,���k��,9.2,��
2020/11/05,16:10,0.658,0.951,0.602,1.180,0.845,0.384,0.671,0.633,���k��,8.3,��
2020/11/05,16:20,0.661,0.953,0.603,1.183,0.844,0.385,0.671,0.635,���k��,7.6,��
2020/11/05,16:30,0.658,0.954,0.602,1.183,0.843,0.384,0.671,0.633,��,6.5,��
2020/11/05,16:40,0.659,0.955,0.604,1.184,0.844,0.386,0.670,0.632,��,7.1,��
2020/11/05,16:50,0.660,0.954,0.605,1.181,0.847,0.385,0.670,0.633,��,7.9,��
2020/11/05,17:00,0.660,0.954,0.604,1.182,0.846,0.385,0.669,0.634,��,7.8,��
2020/11/05,17:10,0.662,0.953,0.605,1.182,0.847,0.384,0.670,0.632,��,8.9,��
2020/11/05,17:20,0.661,0.955,0.604,1.182,0.849,0.383,0.669,0.633,��,7.9,��
2020/11/05,17:30,0.662,0.955,0.606,1.181,0.848,0.384,0.671,0.633,��,5.4,��
2020/11/05,17:40,0.661,0.955,0.605,1.184,0.849,0.386,0.671,0.634,-,-,��
2020/11/05,17:50,0.661,0.954,0.606,1.184,0.848,0.385,0.672,0.633,-,-,-
2020/11/05,18:00,0.663,0.953,0.606,1.180,0.850,0.384,0.670,0.632,-,-,-
2020/11/05,18:10,0.660,0.954,0.604,1.183,0.848,0.386,0.672,0.631,-,-,-
2020/11/05,18:20,0.661,0.952,0.605,1.181,0.850,0.383,0.673,0.631,-,-,-
2020/11/05,18:30,0.659,0.952,0.605,1.184,0.847,0.384,0.672,0.633,-,-,-
2020/11/05,18:40,0.660,0.956,0.606,1.181,0.848,0.384,0.668,0.631,-,-,-
2020/11/05,18:50,0.661,0.954,0.605,1.183,0.848,0.385,0.671,0.632,-,-,-
2020/11/05,19:00,0.661,0.952,0.604,1.183,0.846,0.385,0.671,0.631,-,-,-
2020/11/05,19:10,0.661,0.954,0.604,1.183,0.848,0.383,0.672,0.633,���k��,5.9,��
2020/11/05,19:20,0.661,0.954,0.604,1.183,0.848,0.383,0.673,0.632,�k��,5.8,��
2020/11/05,19:30,0.661,0.954,0.605,1.182,0.849,0.383,0.670,0.633,���k��,5.8,��
2020/11/05,19:40,0.660,0.952,0.603,1.185,0.848,0.384,0.673,0.633,���k��,4.8,��
2020/11/05,19:50,0.662,0.954,0.605,1.182,0.847,0.383,0.672,0.631,���k��,6.0,��
2020/11/05,20:00,0.662,0.957,0.605,1.183,0.847,0.382,0.670,0.633,���k��,7.8,��
2020/11/05,20:10,0.658,0.955,0.606,1.182,0.848,0.384,0.672,0.633,���k��,7.8,��
2020/11/05,20:20,0.660,0.957,0.606,1.183,0.847,0.384,0.673,0.632,���k��,5.9,��
2020/11/05,20:30,0.662,0.953,0.605,1.184,0.848,0.383,0.671,0.632,��,6.5,��
2020/11/05,20:40,0.661,0.953,0.604,1.183,0.847,0.385,0.673,0.632,��,6.7,��
2020/11/05,20:50,0.661,0.954,0.604,1.184,0.847,0.384,0.673,0.632,���쐼,6.3,��
2020/11/05,21:00,0.661,0.954,0.604,1.183,0.850,0.383,0.670,0.632,���쐼,6.3,��
2020/11/05,21:10,0.660,0.952,0.603,1.184,0.849,0.383,0.671,0.633,���쐼,6.7,��
2020/11/05,21:20,0.660,0.952,0.604,1.184,0.847,0.382,0.672,0.632,��,6.8,��
2020/11/05,21:30,0.658,0.954,0.605,1.185,0.848,0.383,0.670,0.632,���k��,7.2,��
2020/11/05,21:40,0.660,0.954,0.604,1.184,0.848,0.384,0.671,0.632,���k��,2.0,��
2020/11/05,21:50,0.662,0.956,0.604,1.183,0.847,0.382,0.671,0.632,��,2.2,��
2020/11/05,22:00,0.661,0.954,0.605,1.182,0.848,0.383,0.671,0.633,��쐼,2.6,��
2020/11/05,22:10,0.661,0.955,0.605,1.181,0.849,0.384,0.672,0.632,���k��,2.6,��
2020/11/05,22:20,0.660,0.952,0.604,1.181,0.849,0.383,0.671,0.632,��,2.3,��
2020/11/05,22:30,0.660,0.954,0.604,1.181,0.847,0.382,0.670,0.633,���쐼,2.0,��
2020/11/05,22:40,0.660,0.953,0.603,1.182,0.849,0.382,0.672,0.629,��쐼,1.9,��
2020/11/05,22:50,0.660,0.954,0.604,1.181,0.849,0.383,0.671,0.633,�쐼,1.5,��
2020/11/05,23:00,0.660,0.954,0.605,1.185,0.847,0.383,0.671,0.632,���k��,2.2,��
2020/11/05,23:10,0.661,0.954,0.605,1.182,0.848,0.384,0.671,0.631,���k��,2.9,��
2020/11/05,23:20,0.659,0.953,0.604,1.183,0.845,0.382,0.671,0.631,��,3.5,��
2020/11/05,23:30,0.661,0.951,0.604,1.181,0.848,0.382,0.670,0.632,��,3.1,��
2020/11/05,23:40,0.662,0.952,0.604,1.181,0.846,0.382,0.670,0.631,��,3.4,��
2020/11/05,23:50,0.658,0.953,0.605,1.180,0.848,0.383,0.672,0.631,���k��,3.5,��
